Regional Weather Roundup
Issued by NWS Albany, NY

Home | Current Version | Previous Version | Text Only | Print | Product List | Glossary On
Versions: 1 2 3 4 5 6 7 8 9 10 11 12 13 14 15 16 17 18 19 20 21 22 23 24 25 26 27 28 29 30 31 32 33 34 35
000
ASUS41 KALY 231510
RWRALY

NEW YORK STATE HOURLY WEATHER ROUNDUP
NATIONAL WEATHER SERVICE ALBANY NY
1100 AM EDT THU OCT 23 2014

NOTE: "FAIR" INDICATES FEW OR NO CLOUDS BELOW 12,000 FEET WITH NO
SIGNIFICANT WEATHER AND/OR NO OBSTRUCTIONS TO VISIBILITY.

NYZ032-033-038>043-046>054-057>066-NYZ062>081-231600-
EAST


CITY           SKY/WX    TMP DP  RH WIND       PRES   REMARKS
ALBANY         LGT RAIN  46  44  93 N9        29.85F FOG
GLENS FALLS    RAIN      47  43  86 N9        29.87S FOG
POUGHKEEPSIE   RAIN      48  45  89 N13G29    29.76R FOG
NEWBURGH       CLOUDY    48  46  93 NE17G29   29.76S
MONTGOMERY     CLOUDY    49  46  90 NE7       29.76S
WHITE PLAINS   LGT RAIN  48  44  86 N15G24    29.69R
ISLIP          CLOUDY    54  49  83 N17G26    29.63S
NEW YORK CITY  LGT RAIN  52  47  83 N17G28    29.71R
CENTRAL PARK   LGT RAIN  51  47  86 N10G17    29.75R FOG
$$

NYZ005>009-017-018-044>046-055-056-231600-
CENTRAL


CITY           SKY/WX    TMP DP  RH WIND       PRES   REMARKS
FULTON         MOSUNNY   51  38  60 N20G29    30.00S
SYRACUSE       PTSUNNY   49  39  68 NW15G22   29.98F
ROME           CLOUDY    47  39  74 N7        29.96R
ELMIRA         CLOUDY    51  43  74 N9        29.97F
BINGHAMTON     CLOUDY    43  39  86 N16G22    29.89F
MONTICELLO     CLOUDY    46  45  93 N15G24    29.80F
$$

NYZ026>034-041>043-231600-
NORTH


CITY           SKY/WX    TMP DP  RH WIND       PRES   REMARKS
WATERTOWN      SUNNY     52  36  54 NE15G24   30.01F
FORT DRUM      NOT AVBL
MASSENA        CLOUDY    50  37  61 NE17G25   30.07F
SARANAC LAKE   CLOUDY    40  36  86 N12       29.96F WCI  33
PLATTSBURGH    LGT RAIN  43  42  97 N20G28    30.00S FOG
$$

NYZ001>004-010>016-019>021-231600-
WEST


CITY           SKY/WX    TMP DP  RH WIND       PRES   REMARKS
NIAGARA FALLS  SUNNY     51  40  65 NW10      30.13S
BUFFALO        MOSUNNY   52  40  63 NW12      30.12F
DUNKIRK        SUNNY     52  41  66 N8        30.15R
JAMESTOWN      SUNNY     48  39  71 N14       30.12R
WELLSVILLE     PTSUNNY   46  38  73 N14G24    30.05F
ROCHESTER      PTSUNNY   51  40  65 N16       30.08F
PENN YAN       CLOUDY    48  40  73 NW13G26   30.02S
$$

             KEY
       WCI = WIND CHILL INDEX
       VSB = VISIBILITY
       HX  = HEAT INDEX
$$



USA.gov is the U.S. government's official web portal to all federal, state and local government web resources and services.